sat.trackr.live / text

‹ back to catalog

STARLINK-35507

NORAD 66327 · 2025-253J

PAYLOAD ACTIVE UNKNOWN

§ Identity

Operator
Country
US
Launch date
2025-11-06
Launch site
AFETR
Launch vehicle
Mass (kg)
RCS (m²)

Purposes: comms

External: N2YO · Heavens-Above · Gunter

§ Orbital elements

Epoch: 2026-05-25T00:54:22.101120Z

Period
94.27 min
Inclination
43.0004°
Eccentricity
0.0001217
Mean motion
15.27580540 rev/d
Perigee alt
482.2 km
Apogee alt
483.9 km
Semi-major
6,861.2 km
B*
5.3391e-4
RAAN
141.1009°
Arg perigee
255.1888°
Mean anomaly
104.8828°
Rev number
3,192

§ Raw data

STARLINK-355071 66327U 25253J   26145.03775580  .00014459  00000+0  53391-3 0  99902 66327  43.0004 141.1009 0001217 255.1888 104.8828 15.27580540 31924

JSON: /api/v1/satellites/66327 · /tle

For live sub-satellite position, see the globe view (requires WebGL).

§ Visibility from observer

Set your observer location to see the next 7 days of passes ≥ 10°. The values pass through the URL so the page stays shareable.

No JS? Fill the form by hand. The geolocation button needs JavaScript.